Regional Weather Roundup
Issued by NWS Albany, NY

Home | Current Version | Previous Version | Text Only | Print | Product List | Glossary On
Versions: 1 2 3 4 5 6 7 8 9 10 11 12 13 14 15 16 17 18 19 20 21 22 23 24 25 26 27 28 29 30 31 32 33 34 35 36 37 38 39 40 41 42 43 44 45 46 47 48 49 50
293
ASUS41 KALY 272110
RWRALY

NEW YORK STATE HOURLY WEATHER ROUNDUP
NATIONAL WEATHER SERVICE ALBANY NY
500 PM EDT MON MAR 27 2017

NOTE: "FAIR" INDICATES FEW OR NO CLOUDS BELOW 12,000 FEET WITH NO
SIGNIFICANT WEATHER AND/OR NO OBSTRUCTIONS TO VISIBILITY.

NYZ032-033-038>043-046>054-057>066-NYZ062>081-082-084-272200-
EAST


CITY           SKY/WX    TMP DP  RH WIND       PRES   REMARKS
ALBANY         CLOUDY    46  39  76 S7        29.98F
GLENS FALLS    LGT RAIN  38  36  92 CALM      29.98F FOG
POUGHKEEPSIE   MOSUNNY   46  41  82 SW9       29.97F
NEWBURGH       PTSUNNY   46  45  93 CALM      29.99F
MONTGOMERY     CLOUDY    46  42  86 S6        29.97F
WHITE PLAINS   PTSUNNY   47  44  90 SE3       29.98F
ISLIP          CLOUDY    51  47  86 N8        29.99F
NEW YORK CITY  PTSUNNY   47  42  83 NE9       29.99F
CENTRAL PARK   CLOUDY    51  45  79 CALM      30.02S
$$

NYZ005>009-017-018-044>046-055-056-272200-
CENTRAL


CITY           SKY/WX    TMP DP  RH WIND       PRES   REMARKS
FULTON         CLOUDY    48  42  80 SE5       29.91R
SYRACUSE       CLOUDY    51  44  77 NE5       29.91S
ROME           CLOUDY    41  38  89 E8        29.96S
ELMIRA         RAIN      58  51  78 W5        29.91S
BINGHAMTON     PTSUNNY   53  46  77 S5        29.92F
MONTICELLO     CLOUDY    45  45 100 CALM      29.97F
$$

NYZ026>034-041>043-087-272200-
NORTH


CITY           SKY/WX    TMP DP  RH WIND       PRES   REMARKS
WATERTOWN      CLOUDY    49  46  90 S6        29.88S
FORT DRUM      NOT AVBL
MASSENA        LGT RAIN  38  37  97 E5        29.92R FOG     WCI  34
SARANAC LAKE   CLOUDY    41  40  96 SW7       29.88S FOG
PLATTSBURGH    CLOUDY    39  35  86 SE10      29.93F WCI  32
$$

NYZ001>004-010>016-019>021-085-272200-
WEST


CITY           SKY/WX    TMP DP  RH WIND       PRES   REMARKS
NIAGARA FALLS  MOSUNNY   60  49  66 SW17      29.88F
BUFFALO        CLOUDY    48  45  89 SW9       29.91F FOG
DUNKIRK        CLOUDY    54  49  83 SW13      29.93S
JAMESTOWN      CLOUDY    54  46  76 NW6       29.91F
WELLSVILLE     PTSUNNY   56  50  80 W6        29.93F
ROCHESTER      CLOUDY    57  50  77 W17       29.90S
PENN YAN       CLOUDY    59  48  67 W10       29.91S
$$

             KEY
       WCI = WIND CHILL INDEX
       VSB = VISIBILITY
       HX  = HEAT INDEX
$$




USA.gov is the U.S. government's official web portal to all federal, state and local government web resources and services.